Location: Columbia
(38.9520°N, 92.3340°W)
Time: 05:13:28
(UTC-05:00)

FENGYUN 3A - Visible Passes

Search period start: 29 May 2015 00:00
Search period end: 08 June 2015 00:00
Orbit: 820 x 833 km, 98.5° (Epoch: 28 May)

Date Brightness Start Highest point End Pass type
(mag) Time Alt. Az. Time Alt. Az. Time Alt. Az.
29 May 5.1 22:22:05 10° SSW 22:26:53 32° W 22:31:39 10° NW visible
30 May 4.5 22:02:47 10° S 22:07:58 47° W 22:13:11 10° NNW visible
31 May 3.9 21:43:45 10° S 21:49:07 71° WSW 21:54:32 10° NNW visible
01 Jun 3.7 21:24:57 10° SSE 21:30:18 78° ENE 21:35:45 10° N visible
01 Jun 6.2 23:09:08 10° WSW 23:11:18 12° W 23:13:06 10° WNW visible
02 Jun 4.0 21:06:22 10° SSE 21:11:33 53° ENE 21:16:50 10° N visible
02 Jun 5.9 22:48:25 10° SW 22:52:12 19° W 22:55:48 10° NW visible
03 Jun 5.4 22:28:36 10° SSW 22:33:11 28° W 22:37:44 10° NW visible
04 Jun 4.7 22:09:10 10° SSW 22:14:14 41° W 22:19:20 10° NNW visible
05 Jun 4.1 21:50:02 10° S 21:55:21 62° W 22:00:44 10° NNW visible
06 Jun 3.7 21:31:09 10° SSE 21:36:32 89° E 21:42:00 10° NNW visible
07 Jun 3.8 21:12:29 10° SSE 21:17:47 61° ENE 21:23:08 10° N visible
07 Jun 6.0 22:55:10 10° SW 22:58:32 16° W 23:01:40 10° NW visible
